EW3920 Weather Reports


time (UTC)temp
C
wind
direction
speed
KPH
gust
KPH
rain 1hr
cm
rain 24hr
cm
rain mn
cm
humidity
%
barometer
mb
20220930152918 13 257 0.0 0.0 0.00 0.00 0.00 77 1012.5
20220930152001 13 352 1.6 0.0 0.00 0.00 0.00 78 1012.3
20220930150946 13 274 6.4 0.0 0.00 0.00 0.00 77 1012.3
20220930145944 13 281 1.6 0.0 0.00 0.00 0.00 77 1012.2
20220930145005 13 226 1.6 0.0 0.00 0.00 0.00 77 1012.1
20220930143846 13 252 1.6 0.0 0.00 0.00 0.00 77 1012.0
20220930135911 13 262 6.4 0.0 0.00 0.00 0.00 77 1011.6
20220930131914 14 240 1.6 0.0 0.00 0.00 0.00 73 1011.3
20220930131006 14 238 4.8 0.0 0.00 0.00 0.00 73 1011.3
20220930130007 14 246 8.0 0.0 0.00 0.00 0.00 73 1011.3
20220930124912 14 248 6.4 0.0 0.00 0.00 0.00 74 1011.4
20220930123912 13 251 6.4 0.0 0.00 0.00 0.00 75 1011.4
20220930122933 13 263 1.6 0.0 0.00 0.00 0.00 75 1011.4
20220930120922 13 232 1.6 0.0 0.00 0.00 0.00 77 1011.4
20220930114925 12 146 4.8 0.0 0.00 0.00 0.00 78 1011.5
20220930113929 12 153 1.6 0.0 0.00 0.00 0.00 78 1011.4
20220930110928 12 125 1.6 0.0 0.00 0.00 0.00 77 1011.2
20220930104950 12 240 1.6 0.0 0.00 0.00 0.00 78 1011.3
20220930103849 12 269 6.4 0.0 0.00 0.00 0.00 77 1011.1
20220930101004 13 252 9.7 0.0 0.00 0.00 0.00 75 1010.9
20220930093932 12 197 3.2 0.0 0.00 0.00 0.00 76 1010.8
20220930092951 12 191 3.2 0.0 0.00 0.00 0.00 76 1010.7
20220930090911 12 184 3.2 0.0 0.00 0.00 0.00 75 1010.6
20220930085000 12 183 0.0 0.0 0.00 0.00 0.00 76 1010.3
20220930083943 12 181 0.0 0.0 0.00 0.00 0.00 77 1010.2
20220930082948 11 158 0.0 0.0 0.00 0.00 0.00 77 1010.2
20220930081911 11 174 0.0 0.0 0.00 0.00 0.00 79 1010.0
20220930080936 11 158 3.2 0.0 0.00 0.00 0.00 79 1009.7
20220930075920 11 187 0.0 0.0 0.00 0.00 0.00 80 1009.4
20220930074946 11 104 3.2 0.0 0.00 0.00 0.00 80 1009.4
20220930073926 11 81 0.0 0.0 0.00 0.00 0.00 78 1009.3
20220930071936 10 72 3.2 0.0 0.00 0.00 0.00 79 1009.1
20220930070920 10 45 4.8 0.0 0.00 0.00 0.00 78 1008.9
20220930064913 10 72 6.4 0.0 0.00 0.00 0.00 78 1008.7
20220930062010 10 76 9.7 0.0 0.00 0.00 0.00 78 1008.4
20220930055940 8 57 9.7 0.0 0.00 0.00 0.00 81 1008.1
20220930045951 8 57 9.7 0.0 0.00 0.00 0.00 81 1007.7
20220930042947 8 57 9.7 0.0 0.00 0.00 0.00 81 1007.5
20220930041910 8 57 9.7 0.0 0.00 0.00 0.00 81 1007.4
20220930040956 8 57 9.7 0.0 0.00 0.00 0.00 81 1007.3
20220930035857 8 57 9.7 0.0 0.00 0.00 0.00 81 1007.2
20220930034923 8 57 9.7 0.0 0.00 0.00 0.00 81 1007.3
20220930033945 8 57 9.7 0.0 0.00 0.00 0.00 81 1007.2
20220930032927 8 57 9.7 0.0 0.00 0.00 0.00 81 1007.2
20220930030958 8 57 9.7 0.0 0.00 0.00 0.00 81 1007.2
20220930025934 8 57 9.7 0.0 0.00 0.00 0.00 81 1007.0
20220930024919 9 22 6.4 0.0 0.00 0.00 0.00 81 1007.1
20220930022951 9 38 11.3 0.0 0.00 0.00 0.00 81 1007.1
20220930021909 9 41 6.4 0.0 0.00 0.00 0.00 84 1007.1
20220930020933 9 75 3.2 0.0 0.00 0.00 0.00 85 1007.1
20220930014006 9 52 0.0 0.0 0.00 0.00 0.00 81 1007.0
20220930012952 9 39 4.8 0.0 0.00 0.00 0.00 83 1006.9
20220930010940 9 19 1.6 0.0 0.00 0.00 0.00 84 1006.8
20220930005912 9 25 4.8 0.0 0.00 0.00 0.00 84 1006.8
20220930005003 9 25 4.8 0.0 0.00 0.00 0.00 85 1006.8
20220930002950 8 39 4.8 0.0 0.00 0.00 0.00 86 1006.7
20220930000941 9 39 4.8 0.0 0.00 0.00 0.00 85 1006.6
20220929235924 9 44 4.8 0.0 0.00 0.00 0.00 85 1006.6
20220929234923 9 90 0.0 0.0 0.00 0.00 0.00 84 1006.5
20220929231002 9 25 4.8 0.0 0.00 0.00 0.00 83 1006.6
20220929225943 10 19 6.4 0.0 0.00 0.00 0.00 82 1006.5
20220929222933 10 328 1.6 0.0 0.00 0.00 0.00 79 1006.4
20220929222000 10 328 0.0 0.0 0.00 0.00 0.00 77 1006.4
20220929214927 10 72 3.2 0.0 0.00 0.00 0.76 79 1006.4
20220929205947 10 47 6.4 0.0 0.00 0.00 0.76 77 1006.0
20220929204924 10 35 4.8 0.0 0.00 0.00 0.76 78 1006.0
20220929204007 10 23 8.0 0.0 0.00 0.00 0.76 76 1005.7
20220929202923 10 349 9.7 0.0 0.00 0.00 0.76 76 1005.5
20220929201852 10 9 12.9 0.0 0.00 0.00 0.76 77 1005.5
20220929200912 10 43 11.3 0.0 0.00 0.00 0.76 78 1005.4
20220929195957 10 48 14.5 0.0 0.00 0.00 0.76 80 1005.3
20220929194936 10 47 17.7 0.0 0.00 0.00 0.76 80 1005.2
20220929192939 10 39 20.9 0.0 0.00 0.00 0.76 81 1005.1
20220929191939 10 30 20.9 0.0 0.00 0.00 0.76 81 1005.0
20220929190923 10 20 14.5 0.0 0.00 0.00 0.76 81 1004.8
20220929185943 10 11 17.7 0.0 0.00 0.00 0.76 81 1004.6
20220929184932 10 41 11.3 0.0 0.00 0.00 0.76 82 1004.6
20220929181948 10 30 20.9 0.0 0.00 0.00 0.76 82 1004.4
20220929180929 10 20 12.9 0.0 0.00 0.00 0.76 81 1004.4
20220929174947 10 41 4.8 0.0 0.00 0.00 0.76 84 1004.3
20220929173931 10 33 8.0 0.0 0.00 0.00 0.74 84 1004.1
20220929171943 11 32 3.2 0.0 0.00 0.00 0.74 84 1003.8
20220929170949 11 27 4.8 0.0 0.00 0.00 0.74 84 1003.8
20220929165946 11 156 1.6 0.0 0.00 0.00 0.74 85 1003.7
20220929164930 11 158 0.0 0.0 0.00 0.00 0.74 85 1003.6
20220929163915 11 158 1.6 0.0 0.00 0.00 0.74 84 1003.5
20220929163012 11 56 1.6 0.0 0.00 0.00 0.74 82 1003.5
20220929162001 11 39 4.8 0.0 0.00 0.00 0.74 81 1003.3
20220929155917 11 12 6.4 0.0 0.00 0.00 0.74 80 1003.1
20220929154919 11 20 3.2 0.0 0.00 0.00 0.74 80 1002.9